Wind_Speed
11 10 9 10 8 7 6 5 5 3 2 2 2 3 3 3 3 2 4 6 6 4 3 3 2 3 4 6 7 7 6 6 6 6 7 7 8 9 8 7 7 9 11 12 12 13 14 14 13 14 14 15 14 14 14 13 12 11 11 10 10 10 10 10 10 10 11 10 10 10 10 9 9 9 8 7 7 7 7 7 6 6 5 5 5
12 10 10 10 9 8 7 6 5 4 4 4 5 4 5 5 5 5 5 6 7 5 4 4 3 4 6 5 8 8 8 7 5 5 7 8 9 9 9 7 7 8 9 11 11 12 12 13 13 14 15 15 14 14 14 13 12 12 13 12 12 11 11 10 10 10 10 11 11 11 10 9 9 9 8 8 8 8 8 7 7 6 6 6 5
11 10 10 11 11 9 8 7 6 5 5 6 7 6 6 7 6 6 5 5 4 3 3 2 2 3 4 2 7 8 8 7 4 5 6 7 8 10 10 8 8 8 8 10 11 11 12 12 13 13 14 14 14 14 14 14 13 14 14 14 14 13 12 12 11 11 11 11 11 11 11 10 10 9 9 9 8 8 8 8 8 8 7 7 6
11 11 11 12 11 9 9 8 7 6 6 7 8 7 7 7 6 5 4 3 2 1 2 4 3 2 3 3 7 7 6 5 5 5 5 6 7 9 11 10 9 8 8 9 9 10 11 11 11 11 11 12 13 14 15 15 15 15 15 15 15 15 14 14 13 13 12 12 12 12 11 11 11 11 10 10 9 9 9 10 10 9 9 8 8
11 12 12 13 12 10 9 8 6 7 7 8 8 8 8 6 4 3 1 1 2 3 4 4 3 2 3 4 6 6 6 5 5 4 4 5 6 9 11 10 9 8 8 8 8 9 9 10 10 9 9 9 11 13 14 16 16 15 16 16 16 16 16 16 16 15 15 14 13 13 13 13 12 12 12 11 11 11 11 11 11 10 10 10 9
12 13 13 13 12 10 9 8 6 7 7 8 8 6 6 4 3 3 1 1 3 6 6 4 3 2 2 1 3 5 6 6 6 5 4 5 6 8 10 9 9 8 8 8 9 8 8 9 10 8 8 8 10 11 12 13 14 15 15 15 15 16 15 15 16 17 17 17 16 15 14 14 13 13 13 13 13 12 12 12 12 12 11 11 11
14 14 14 13 12 11 10 8 8 8 8 8 7 5 5 4 2 2 2 2 4 5 4 3 2 2 1 1 3 4 5 5 6 6 5 5 6 8 8 9 9 8 9 8 9 8 8 9 9 7 7 8 10 9 9 11 12 13 13 14 14 15 15 15 15 17 18 18 18 18 17 16 15 15 15 15 14 14 14 13 13 13 12 12 12
17 16 15 14 13 12 10 9 9 8 8 8 7 7 7 5 4 3 3 4 4 3 3 2 2 4 4 4 5 4 4 5 5 7 6 5 6 7 7 10 8 7 8 8 8 9 9 9 9 8 7 7 9 9 9 9 10 11 11 12 12 13 15 15 15 16 17 18 19 19 19 18 17 17 16 16 15 15 15 14 14 14 13 13 13
19 18 16 15 14 13 11 9 8 8 7 7 7 8 8 7 6 5 5 5 3 2 2 1 1 5 6 5 5 5 5 6 7 8 7 6 6 6 7 8 7 6 8 8 8 8 10 10 9 9 8 7 8 9 9 9 9 9 9 10 10 11 12 13 14 15 16 17 17 18 19 19 19 19 18 17 17 16 16 15 15 15 15 14 14
18 16 15 14 13 13 12 9 9 8 7 8 8 8 9 10 8 7 6 6 3 1 1 1 0 4 6 4 3 2 4 6 8 9 9 7 7 8 7 6 6 6 8 8 6 6 9 9 8 8 8 7 8 8 9 9 9 9 9 9 9 10 10 11 12 13 14 15 15 16 17 18 19 19 19 19 18 18 17 16 16 15 15 15 15
16 15 14 13 13 13 12 10 9 8 9 9 8 7 10 12 10 6 6 5 3 1 1 0 1 2 3 3 2 1 1 6 8 9 10 7 7 8 8 8 8 8 8 8 7 6 7 7 6 6 7 7 7 7 8 9 10 9 9 9 9 9 10 10 10 11 13 14 14 14 15 16 17 17 18 19 19 20 19 19 18 17 16 16 16
15 14 14 13 13 12 12 11 9 9 9 8 8 9 12 12 8 6 5 4 3 2 1 1 2 2 3 4 2 1 2 6 9 9 8 7 8 9 10 11 12 11 10 10 9 6 5 5 5 5 6 6 6 6 7 8 9 10 10 9 8 8 9 8 8 10 11 11 12 13 14 14 15 15 16 17 18 19 19 19 20 19 19 18 18
16 15 15 14 13 11 12 12 11 10 8 7 9 10 10 9 6 5 5 5 4 3 1 1 2 3 3 3 1 1 3 5 7 6 6 9 10 10 12 13 13 13 12 12 10 7 5 4 5 5 5 6 7 7 7 7 7 8 8 8 7 7 7 7 7 8 8 8 10 11 12 13 13 14 14 15 16 16 17 17 18 20 20 20 19
17 16 16 15 14 12 12 13 13 12 9 10 10 8 8 8 8 7 5 5 5 3 1 1 2 3 3 2 0 1 2 3 4 3 5 11 13 12 13 14 15 15 14 13 10 7 5 5 5 5 6 6 7 7 6 5 3 3 4 5 6 7 6 6 7 7 7 7 9 10 10 11 12 13 14 14 15 15 16 16 16 17 18 19 19
18 17 17 16 15 14 14 14 15 13 13 13 10 8 8 10 9 7 6 6 4 3 3 2 4 6 5 2 0 1 2 2 2 2 8 11 13 14 14 14 17 16 15 14 10 6 5 5 5 5 5 5 6 5 5 3 2 1 1 2 4 4 3 4 5 5 6 7 8 8 9 10 11 12 13 14 14 15 15 15 16 16 17 17 18
19 19 18 17 17 17 15 15 16 16 16 14 10 8 10 10 9 7 6 6 5 4 3 2 5 7 4 2 1 2 1 1 4 5 11 13 14 16 14 16 18 17 15 13 10 6 5 6 6 5 5 5 4 5 5 4 3 3 2 2 3 3 3 3 3 3 4 5 5 6 8 9 10 11 12 13 13 14 14 14 15 15 15 16 17
20 19 19 19 19 18 17 16 16 17 17 14 10 9 10 11 9 7 7 6 7 6 4 3 5 5 4 3 2 1 1 2 3 6 10 14 16 15 14 16 18 16 14 12 10 7 6 7 6 6 5 5 4 4 5 6 5 4 3 2 2 1 2 2 2 3 3 3 3 5 7 7 8 9 10 10 11 12 13 13 14 14 14 15 15
20 20 20 21 20 19 19 18 17 18 16 13 11 11 11 11 10 8 8 7 8 8 6 6 6 4 4 4 3 3 4 3 2 3 5 9 13 13 13 15 15 15 14 13 11 8 7 7 7 7 6 5 5 5 6 6 7 6 5 4 3 2 2 2 2 2 2 3 3 4 5 6 8 9 9 9 10 11 11 11 12 13 13 13 14
20 20 21 22 20 19 20 20 19 18 15 13 14 14 12 12 10 10 9 8 9 10 9 8 6 5 5 5 5 6 6 4 3 3 3 4 8 11 12 13 14 14 13 13 12 10 9 8 8 8 7 6 6 6 7 6 5 5 4 3 3 3 3 4 4 4 4 3 4 4 5 5 6 7 8 9 10 11 11 12 12 12 13 13 13
21 21 22 23 21 20 21 21 20 18 15 14 16 16 14 12 11 11 11 9 9 10 11 10 8 8 8 6 6 6 5 4 5 5 4 3 3 5 9 13 13 14 13 12 11 11 10 10 10 10 9 8 7 7 7 5 3 3 2 2 2 2 3 5 5 5 5 5 4 4 5 5 5 6 6 7 8 10 11 12 13 13 14 14 14
23 22 23 24 22 21 22 23 21 19 16 14 16 17 15 13 14 14 13 10 10 10 11 11 10 11 11 8 7 6 4 4 5 4 4 3 1 2 6 10 10 11 14 13 11 11 11 10 11 11 10 9 8 8 7 5 4 3 2 1 1 1 2 4 5 5 6 7 6 5 5 5 5 5 5 5 5 6 7 9 10 11 12 13 13
25 23 24 24 23 23 24 24 22 20 17 14 16 17 15 14 15 15 13 11 12 11 10 11 12 11 10 9 8 7 4 3 4 4 3 4 2 1 4 7 6 9 14 15 13 13 12 11 12 12 11 10 9 9 9 8 6 5 2 2 2 2 3 4 4 5 6 7 8 7 6 5 5 5 4 4 3 3 4 5 6 8 9 10 11
28 26 25 24 24 25 25 24 23 21 19 16 17 19 16 15 15 15 13 11 12 12 10 11 12 11 9 9 10 8 5 5 6 6 4 4 4 2 2 5 6 8 14 16 13 12 13 13 14 13 12 12 11 11 10 9 9 7 4 3 3 4 4 5 5 6 7 8 8 7 7 6 5 5 5 4 4 4 4 4 5 6 8 9 10
29 28 27 26 25 26 26 25 24 23 21 19 20 21 17 16 16 15 14 12 13 13 12 12 11 10 10 10 10 8 6 6 7 8 7 6 7 4 3 4 4 5 10 13 11 12 14 14 14 13 13 13 13 13 12 11 11 8 6 5 5 6 6 7 7 8 9 8 7 7 7 7 7 7 7 7 7 6 6 6 6 7 7 8 9
32 31 31 29 27 27 28 28 26 25 23 20 22 23 19 18 19 17 15 15 15 14 13 13 11 10 11 11 9 8 7 7 7 8 8 7 7 5 4 4 3 3 5 8 8 9 12 13 13 13 13 14 15 15 14 13 12 10 8 7 7 8 8 9 9 9 9 7 7 7 8 8 9 9 10 10 10 10 9 9 8 8 8 9 9
35 34 33 31 30 29 29 29 28 27 24 22 23 24 21 20 20 18 17 16 16 15 14 14 13 12 11 10 9 9 8 8 8 8 8 8 7 7 6 3 1 2 3 4 5 5 7 8 9 10 12 14 16 16 16 15 14 11 9 9 9 10 10 10 10 10 8 7 7 8 10 11 11 11 11 12 12 13 12 12 12 11 11 10 11
37 36 34 33 32 31 31 30 29 28 25 24 25 25 22 22 22 20 18 17 16 16 16 16 15 14 12 10 9 9 8 9 9 8 7 8 8 9 8 4 1 2 3 3 4 5 6 5 6 7 8 10 13 16 18 17 14 12 11 11 11 11 11 12 11 10 9 9 10 11 12 13 14 14 14 14 15 15 15 15 15 15 14 14 13
37 37 36 34 33 32 32 32 31 30 27 25 26 26 24 23 23 22 21 19 18 18 18 17 17 16 14 12 11 11 9 9 9 8 7 7 8 9 9 7 5 1 2 3 3 4 5 5 4 4 4 6 9 12 16 18 15 12 13 13 13 12 12 12 12 11 11 12 13 13 13 14 15 16 16 17 17 18 18 17 16 16 16 17 16
38 38 37 36 35 34 34 33 33 31 28 26 27 26 25 24 23 23 23 22 21 20 20 19 18 18 16 14 14 13 11 11 10 9 8 8 8 9 8 8 7 5 1 2 3 4 5 5 4 4 4 5 6 8 13 15 14 13 14 14 14 13 12 12 12 12 13 14 14 14 15 14 14 15 15 16 16 17 16 15 15 15 16 16 16
38 38 37 37 36 35 35 35 34 33 30 28 27 27 27 25 24 23 24 24 23 21 21 19 18 20 18 16 14 13 13 13 12 10 9 9 9 9 9 8 8 7 6 4 3 5 7 8 7 6 4 3 4 6 10 12 13 14 15 16 15 13 12 12 12 13 14 14 15 15 14 13 13 13 14 14 15 15 14 14 14 15 16 17 17
39 38 38 38 37 37 37 36 36 34 31 29 27 27 28 27 26 24 24 26 25 23 22 20 18 19 20 18 16 15 14 13 12 12 12 11 11 11 10 10 10 10 10 7 3 5 8 8 7 7 6 6 6 8 11 12 13 14 16 18 17 15 13 13 14 14 14 14 15 14 12 11 12 13 14 15 15 16 16 16 17 17 17 17 17
39 39 39 39 38 38 38 38 37 35 34 32 29 28 28 28 27 25 25 27 26 24 24 21 19 19 20 21 19 17 16 15 14 13 13 13 12 12 11 11 11 11 11 10 6 9 13 13 12 13 12 11 11 11 12 13 13 14 15 16 16 16 15 15 15 16 16 15 13 12 11 11 12 13 14 15 16 17 18 18 18 18 18 17 17
39 39 39 39 40 40 40 39 38 37 36 34 31 29 30 30 29 28 27 28 28 26 25 24 22 21 21 22 22 19 17 17 17 15 14 14 13 13 12 13 13 13 13 14 11 12 18 19 18 18 15 13 12 12 13 14 15 15 16 16 17 17 16 16 16 16 17 17 15 12 11 12 12 13 15 15 17 18 19 19 19 18 18 18 18
40 40 40 40 40 41 41 40 39 38 37 35 33 32 32 32 32 31 30 30 30 28 27 26 24 23 22 22 22 21 18 18 18 17 16 15 15 15 15 15 16 16 15 17 15 13 17 21 20 18 16 14 15 15 14 15 16 17 18 18 19 20 20 20 20 19 18 17 17 16 15 15 15 15 16 17 19 20 21 21 21 20 19 20 20
40 41 41 41 41 41 42 41 40 39 38 36 35 34 34 35 34 34 33 32 32 30 29 27 24 23 24 24 22 21 20 19 19 19 17 17 16 16 16 16 17 18 17 18 18 16 17 21 21 19 17 16 15 15 15 16 17 18 19 20 21 21 21 22 22 20 18 17 18 18 18 17 17 17 18 19 20 21 21 22 22 22 22 21 21
40 41 41 40 41 41 42 42 40 39 38 37 37 36 36 37 37 36 35 34 33 32 31 30 26 24 25 26 23 22 22 21 21 20 19 18 17 17 18 18 18 19 19 19 21 20 19 19 20 19 17 15 16 16 15 16 17 17 19 20 20 20 19 19 20 20 20 18 18 18 18 18 18 18 19 19 19 20 21 22 21 21 21 22 23
40 41 41 40 40 42 42 42 40 40 40 39 39 38 38 39 38 37 36 35 33 32 32 31 29 26 25 26 24 22 22 23 23 22 20 18 18 17 18 19 18 19 19 19 21 21 21 21 21 21 18 16 17 16 16 17 17 18 18 19 19 19 20 20 20 21 21 20 20 19 19 19 20 20 20 19 19 19 20 21 21 22 23 24 24
40 40 40 40 41 42 42 41 40 40 41 41 41 40 39 39 38 37 36 34 33 32 32 31 30 28 26 26 24 23 22 23 23 22 20 18 18 18 19 19 18 18 19 19 20 20 21 22 23 23 21 20 20 19 18 17 18 19 19 19 19 19 20 21 22 23 21 20 19 19 20 21 21 20 20 20 20 21 21 22 23 24 24 24 24
39 39 40 41 42 42 41 40 40 40 41 42 42 40 40 40 38 36 34 33 33 33 33 31 30 29 28 27 26 26 25 23 22 21 19 19 19 19 20 19 19 19 19 20 20 21 22 23 24 24 23 23 22 21 20 18 18 19 19 19 20 20 20 21 23 23 22 21 20 19 20 21 21 21 21 21 22 23 23 24 24 25 25 25 24
39 39 40 40 40 39 39 40 40 40 41 42 42 41 41 39 37 35 33 32 32 32 31 31 31 30 29 28 27 27 26 24 22 21 20 20 20 20 20 19 20 20 20 21 21 22 23 23 24 23 23 22 21 21 20 18 16 18 20 20 21 22 22 22 22 22 22 22 22 20 20 21 21 21 21 23 24 24 24 24 24 25 25 25 24
40 40 39 39 38 38 38 38 39 40 42 43 44 43 41 39 37 34 32 32 32 30 29 30 31 30 29 29 28 26 25 23 22 22 22 21 20 21 20 20 21 21 22 21 21 21 21 21 22 22 21 21 21 21 20 20 20 22 23 21 20 22 23 23 24 24 22 22 21 20 19 20 20 20 21 24 24 24 24 24 25 25 26 26 27
39 39 38 37 37 38 38 38 39 40 42 44 45 44 42 39 35 31 30 31 32 30 29 30 31 30 30 28 28 27 25 22 21 22 21 20 21 21 21 22 22 23 23 23 22 21 20 19 21 21 19 20 23 23 23 25 25 24 23 21 20 21 21 20 22 22 21 19 18 17 18 18 20 21 22 24 25 25 26 26 26 27 27 27 27
38 38 37 37 38 39 38 39 39 40 43 45 45 44 42 36 29 27 29 31 31 29 29 30 31 31 30 28 28 27 24 22 21 21 20 21 21 22 23 24 24 23 23 23 23 21 19 20 21 21 19 21 25 26 25 26 26 24 23 21 19 18 16 13 13 15 18 17 15 16 18 20 22 23 23 25 27 27 27 26 25 24 24 24 24
38 37 37 37 39 39 38 39 40 42 44 45 45 43 39 33 30 33 34 31 30 29 29 30 31 31 30 29 28 26 24 22 22 21 21 20 20 21 21 19 18 19 21 23 23 21 20 20 21 20 20 22 24 25 24 23 23 22 20 18 17 17 16 14 14 16 20 19 17 17 20 23 24 23 25 27 27 26 24 22 21 22 23 23 23
38 37 37 38 38 39 39 40 41 42 43 44 44 40 35 36 38 40 36 32 31 30 29 30 31 30 29 28 27 26 24 23 22 21 18 16 14 13 12 11 12 16 19 21 22 21 21 21 21 23 24 22 23 25 24 23 22 19 17 19 21 21 20 19 19 22 23 21 19 19 21 23 24 24 25 25 23 22 21 20 22 23 23 23 22
36 37 38 38 39 39 40 41 41 42 42 43 41 37 36 40 42 39 34 33 31 30 29 30 29 29 28 27 27 25 24 24 22 19 15 12 10 10 11 13 15 18 20 21 20 19 19 20 23 27 27 24 24 25 25 23 21 20 21 22 22 22 22 21 21 23 23 21 20 18 18 21 23 23 24 23 21 21 21 21 22 21 19 19 19
38 39 39 39 39 39 40 40 40 40 41 40 37 36 38 42 42 38 34 34 31 28 28 28 28 29 29 28 27 25 24 23 21 18 14 13 13 14 15 17 18 21 24 23 19 16 17 18 21 24 24 22 22 22 22 20 21 22 22 20 19 20 20 20 21 23 22 21 21 17 15 18 20 20 23 23 22 21 21 20 20 19 18 19 19
38 38 38 39 39 39 39 39 39 39 38 36 35 37 38 39 40 38 35 35 33 29 27 27 28 29 29 28 27 25 23 21 19 16 15 14 16 18 19 19 20 23 24 21 17 16 17 17 18 19 19 18 18 19 19 18 18 20 19 18 19 20 18 17 19 22 22 22 22 18 15 17 19 20 22 23 22 21 20 19 20 20 22 23 22
37 38 38 39 39 38 38 38 38 36 34 33 34 37 37 36 38 38 37 37 35 31 27 27 28 28 27 26 26 26 25 21 18 17 15 15 17 19 20 22 22 24 24 20 18 17 17 16 17 17 17 17 16 16 17 16 16 17 17 18 20 20 17 13 13 17 21 22 23 20 16 16 17 18 20 21 20 19 19 21 23 24 23 24 24
38 38 38 37 36 37 37 38 38 36 34 34 34 36 37 36 38 40 40 38 34 31 28 25 24 25 26 26 26 26 25 21 19 18 18 18 20 21 22 22 22 25 25 22 19 18 17 16 16 16 15 15 14 15 15 15 14 15 17 18 19 18 16 13 13 16 18 21 22 18 13 15 17 18 19 19 18 18 19 20 20 20 20 23 26
37 36 36 35 34 35 36 37 39 38 36 35 35 36 36 36 38 40 38 34 32 32 29 25 22 22 25 26 26 25 24 22 21 21 21 21 22 23 21 19 21 25 25 21 19 18 16 15 14 14 14 15 16 16 17 16 14 15 18 19 17 16 16 16 17 14 10 13 17 15 13 16 18 17 17 15 11 12 15 17 18 20 23 27 29
Wind_Direction
214 214 219 223 225 223 219 219 220 229 243 251 260 268 300 296 279 277 277 285 293 290 266 249 262 287 288 266 232 213 205 200 198 196 201 198 192 197 197 188 187 189 189 193 204 209 206 207 208 207 208 207 204 204 206 206 205 203 204 205 206 206 207 210 212 211 209 209 208 210 216 219 217 213 211 215 221 225 229 239 245 238 235 241 244
213 215 224 229 229 225 220 221 226 233 237 245 250 252 274 285 279 272 273 280 286 273 244 242 276 309 316 271 226 212 207 201 197 195 195 190 189 195 196 192 189 190 192 196 205 210 207 206 208 210 212 212 211 211 211 211 212 212 212 211 210 209 211 214 217 220 221 219 217 217 221 224 227 224 219 220 223 228 232 238 246 248 247 247 248
217 220 225 229 229 223 218 224 236 243 243 245 245 240 252 270 269 266 277 284 279 257 235 271 318 348 360 241 203 202 209 206 194 184 184 185 184 190 193 192 194 192 194 201 205 205 204 205 210 214 215 217 217 217 218 218 219 220 220 220 219 217 216 217 218 221 224 226 226 226 224 224 228 229 225 226 229 232 236 239 243 245 248 251 252
220 226 228 226 224 219 218 227 241 242 238 237 237 239 249 264 264 261 276 281 274 279 300 328 340 26 61 159 187 195 204 198 191 172 162 174 174 184 191 192 197 196 197 205 210 205 197 201 215 220 221 224 225 224 224 224 224 225 225 224 225 225 224 223 223 223 224 226 229 231 231 228 228 229 228 228 231 235 240 243 245 245 246 247 249
217 224 226 222 217 216 220 230 242 236 234 233 232 241 247 250 246 239 243 253 304 332 318 326 339 4 71 139 174 189 192 177 181 174 155 160 163 176 186 191 199 198 198 205 215 215 200 197 212 223 225 228 233 232 231 232 229 228 229 227 227 227 227 229 228 228 228 228 229 230 232 233 231 231 230 230 232 234 239 244 247 249 250 250 251
214 219 216 212 212 216 224 233 240 237 237 234 233 237 227 217 213 203 183 260 325 330 324 339 4 7 31 98 138 162 184 183 185 187 167 146 149 166 175 185 198 200 199 204 212 218 217 211 212 224 231 232 237 239 238 238 234 232 232 230 230 229 231 234 232 230 230 231 232 231 231 233 234 235 234 232 234 235 237 242 247 250 252 254 255
211 212 206 204 209 216 227 238 243 246 246 237 232 219 186 159 158 180 204 267 317 335 350 13 44 67 85 166 131 128 146 163 185 193 169 138 142 154 167 181 191 200 203 206 211 212 223 227 221 225 232 236 241 243 245 243 237 233 232 231 230 230 233 236 236 235 233 232 233 234 234 234 235 237 238 237 237 238 238 239 244 248 251 254 257
212 212 210 209 212 218 227 237 247 251 248 234 220 204 181 160 158 189 237 262 302 353 58 76 81 77 88 141 152 151 127 112 153 179 165 140 144 147 169 186 183 193 203 205 210 208 214 222 221 224 231 237 239 242 247 246 239 232 229 229 228 229 232 234 235 237 237 235 235 236 236 236 237 238 239 241 241 242 242 241 242 245 248 251 255
218 220 218 216 218 221 225 235 246 242 234 220 201 193 188 182 182 194 234 261 282 360 57 74 86 82 92 116 131 153 155 117 125 162 167 150 153 153 171 186 175 177 192 198 205 207 210 212 211 220 232 237 236 239 244 246 243 238 234 229 225 229 232 233 234 234 236 237 238 238 239 240 240 240 240 242 243 245 247 246 246 247 248 249 251
220 220 217 217 217 217 221 231 236 225 213 202 194 201 201 196 193 194 228 254 250 312 51 128 100 89 101 113 115 134 173 141 122 141 157 150 154 157 159 172 165 164 175 181 185 196 205 205 201 214 232 238 236 237 239 244 246 245 243 235 226 226 229 235 236 234 235 236 238 240 242 243 244 244 245 245 244 244 246 248 249 250 251 251 252
217 214 212 214 213 213 217 222 224 212 201 201 208 218 202 194 200 213 237 247 232 208 121 130 8 89 106 114 127 346 194 162 134 132 149 156 158 151 142 143 147 148 150 152 155 172 191 194 192 204 222 229 231 236 235 238 241 243 247 243 233 226 227 234 236 235 233 232 235 239 241 243 244 247 248 248 247 245 246 247 248 250 252 253 254
214 211 212 210 208 212 211 210 211 198 193 206 212 202 191 194 210 231 234 221 204 198 218 319 45 103 110 114 143 360 85 150 145 139 151 162 155 144 137 134 137 140 137 137 142 150 162 170 176 193 213 214 215 222 225 231 234 234 239 241 238 231 228 229 233 236 234 232 233 235 237 239 243 246 248 249 248 247 248 249 249 249 250 253 255
213 211 213 210 207 210 205 202 201 191 193 200 192 188 195 205 199 191 192 171 155 157 202 306 66 83 110 135 167 64 87 130 148 151 155 156 151 142 139 138 138 139 136 135 138 138 142 148 155 176 203 206 204 208 215 225 232 233 231 227 229 231 227 227 234 237 234 233 235 234 235 239 243 245 246 249 249 248 249 250 251 251 251 252 254
214 212 213 210 207 206 202 198 193 192 200 195 190 202 211 201 179 168 171 152 137 120 94 171 119 91 112 134 7 35 82 125 156 193 174 160 157 148 143 147 146 142 140 139 138 137 143 148 152 169 188 195 204 210 211 215 225 239 228 210 213 221 226 235 246 246 239 236 238 238 238 240 244 245 245 247 249 251 251 252 252 253 254 254 254
213 212 212 209 207 205 201 195 192 198 202 196 203 219 201 185 178 177 173 150 139 121 92 136 156 132 114 100 290 11 52 70 82 174 180 168 163 158 154 156 153 147 145 142 138 138 149 154 154 167 179 185 198 203 196 190 180 153 144 174 191 195 208 233 247 252 250 244 240 242 244 246 249 248 247 247 249 252 255 255 254 253 255 256 256
211 211 209 206 205 205 201 198 201 205 205 205 211 206 187 180 179 181 177 157 153 154 114 114 162 161 141 100 124 95 73 11 43 110 162 160 157 159 156 154 154 152 149 143 138 138 149 156 153 157 167 173 180 179 166 155 146 141 138 148 172 179 193 217 233 242 246 242 239 243 246 250 252 253 252 249 249 252 255 257 258 257 257 257 258
210 211 207 203 204 205 203 202 203 203 207 215 213 195 182 181 180 183 185 171 166 167 146 126 138 152 160 141 112 75 191 223 52 97 148 153 152 155 151 150 154 156 153 148 145 144 147 154 151 144 150 157 159 163 154 136 127 128 123 119 129 166 203 231 254 265 272 272 266 256 252 252 252 254 255 255 255 256 257 259 260 262 262 261 261
209 210 207 204 204 205 205 204 203 202 210 218 210 197 185 183 186 191 189 176 176 174 156 144 130 115 136 137 135 158 170 173 109 101 138 149 152 152 150 153 157 160 161 158 157 157 153 154 153 141 133 135 134 138 137 119 107 106 97 89 77 54 36 4 343 334 327 313 304 283 269 263 258 259 258 257 259 260 261 263 263 265 265 265 265
207 207 207 206 204 205 206 207 206 207 212 213 205 199 193 193 196 200 195 178 180 183 166 156 150 137 133 118 113 133 139 138 145 144 130 145 153 151 155 159 161 165 169 168 167 167 166 167 165 156 142 138 137 136 136 124 108 106 92 76 72 59 34 11 356 347 346 339 327 312 298 286 274 270 266 262 262 263 264 264 264 265 265 267 268
207 205 205 206 206 205 205 207 208 210 211 207 201 198 199 202 199 201 203 193 190 188 175 167 162 155 151 138 124 127 123 117 134 142 133 145 167 161 161 162 165 174 177 178 178 179 181 183 181 174 162 156 159 157 154 149 137 143 120 52 54 66 37 13 355 341 336 332 328 322 312 305 296 286 278 272 269 268 270 270 270 269 269 269 268
208 206 204 205 207 205 203 206 209 212 212 207 201 200 204 205 199 199 202 204 203 190 180 180 172 161 161 157 147 142 136 126 136 137 118 129 188 217 173 165 171 185 189 189 192 194 193 195 195 190 182 176 178 180 179 179 181 185 185 359 4 25 7 1 356 342 332 324 319 320 319 313 310 304 296 289 281 278 277 278 280 279 279 277 273
207 206 203 203 206 205 203 205 211 215 214 211 205 202 205 206 202 201 203 209 205 190 180 183 180 174 174 175 167 160 162 167 174 165 111 103 126 177 176 171 175 192 197 197 198 203 204 203 204 202 199 197 196 200 200 197 203 207 216 301 314 300 313 326 336 335 330 322 311 309 315 315 314 312 311 313 315 312 305 301 300 297 295 292 288
206 205 202 203 204 204 205 206 211 215 214 213 207 200 202 203 201 204 210 215 206 193 183 180 182 185 190 195 187 174 167 172 182 184 162 120 124 136 169 176 178 190 199 201 201 208 211 210 211 212 213 213 211 215 216 213 215 216 225 270 284 278 287 297 306 315 318 313 300 294 302 307 308 304 303 308 312 319 323 324 321 316 312 307 304
204 203 202 202 203 203 205 207 212 214 214 213 205 198 200 203 206 212 216 215 205 196 189 185 187 192 195 197 194 188 179 172 174 180 177 154 151 168 168 164 171 179 193 200 204 212 214 214 215 220 225 225 224 223 224 225 224 223 234 263 276 272 277 283 289 302 308 298 281 277 288 296 298 295 294 295 298 302 304 309 314 316 315 313 312
202 203 202 202 203 204 206 208 212 214 214 212 203 199 202 207 214 220 217 211 204 200 196 191 192 196 195 192 192 197 192 185 186 182 177 162 153 164 165 159 175 178 190 204 213 219 220 220 224 230 235 234 233 233 231 231 231 231 242 261 272 270 271 275 286 301 301 281 261 264 276 284 289 290 292 293 295 297 298 299 301 304 308 310 310
202 203 203 203 204 206 208 210 213 214 214 212 204 202 205 211 219 220 215 211 206 205 205 200 197 197 196 194 195 199 199 198 202 197 195 194 180 168 160 145 175 210 224 234 238 236 231 235 241 245 246 242 239 239 238 237 235 235 245 261 268 268 268 274 287 298 291 270 262 267 273 276 278 282 285 289 292 295 297 297 297 297 298 301 303
205 205 205 204 205 208 210 211 214 215 215 212 205 205 209 214 219 218 216 216 213 212 211 207 203 199 200 204 200 200 201 199 203 209 213 213 204 188 174 157 140 282 285 263 249 247 245 255 263 257 255 250 244 243 241 237 232 236 249 262 267 267 270 276 285 288 279 272 273 275 277 274 272 274 277 283 287 290 293 295 294 292 290 293 297
207 206 205 205 206 209 210 212 214 215 217 213 207 207 211 213 215 216 217 218 219 219 217 213 209 205 207 210 209 209 206 197 202 214 220 218 215 207 195 183 176 210 313 292 257 246 240 245 251 249 253 262 261 251 239 231 231 244 258 267 272 273 276 279 281 279 276 277 278 279 280 277 272 271 275 280 285 287 288 289 289 287 284 286 290
207 206 206 206 207 209 210 212 214 215 217 215 209 209 211 212 213 215 217 217 220 221 220 217 213 210 211 214 218 220 213 207 211 218 224 226 220 216 216 210 195 182 188 273 260 235 214 219 237 254 264 274 277 254 233 231 242 256 265 270 272 274 278 280 278 276 277 280 282 284 285 283 279 276 276 279 282 283 283 282 284 284 282 282 285
206 205 206 206 208 210 211 211 213 216 218 215 211 210 212 215 216 217 218 217 219 219 219 219 216 213 214 216 220 222 218 218 221 224 227 226 224 224 230 235 228 211 196 202 257 248 230 238 254 257 254 257 263 248 238 242 254 260 262 265 265 269 279 283 280 279 281 283 284 287 287 282 278 276 276 276 277 278 276 274 277 280 283 284 285
206 206 206 207 208 210 210 212 214 217 218 215 212 211 213 218 219 219 218 216 217 219 218 220 221 217 216 218 220 222 225 226 229 232 234 234 237 240 242 243 242 237 223 210 231 255 242 248 260 253 251 263 266 261 256 257 263 264 262 261 258 260 272 283 286 286 286 287 287 286 278 269 270 275 276 275 273 271 271 272 275 277 281 283 285
207 208 208 208 209 209 209 212 215 217 217 216 214 212 213 219 221 219 217 215 217 220 218 220 224 222 219 220 221 223 226 230 232 233 236 239 243 246 247 246 243 244 239 225 227 257 258 261 270 273 277 281 274 268 267 269 274 277 276 272 264 259 261 272 283 287 286 285 285 283 274 268 271 276 276 274 272 272 272 274 276 278 280 282 283
209 209 209 209 209 209 209 212 215 216 216 215 214 213 213 218 221 219 217 215 218 220 219 221 224 224 222 221 223 225 226 229 230 229 231 234 238 240 242 244 243 241 240 233 232 255 267 270 274 280 285 284 277 274 277 278 280 282 285 286 282 276 273 276 281 285 284 280 278 278 276 274 274 276 278 278 279 281 281 280 280 280 282 283 283
210 210 211 210 210 210 210 213 215 215 216 215 214 214 214 217 220 220 219 218 218 219 219 221 224 224 223 223 224 226 227 230 230 228 230 231 234 238 239 241 243 241 240 239 236 243 263 271 275 280 284 282 278 280 285 288 289 289 287 286 285 285 286 287 288 286 281 275 274 275 274 275 276 278 282 284 284 285 285 285 285 284 285 286 286
211 212 212 212 211 211 211 213 213 214 215 215 215 215 216 217 218 220 221 221 221 220 220 221 223 223 223 224 226 228 230 233 231 229 233 235 238 242 243 244 247 247 246 245 242 241 252 266 272 275 278 276 271 274 282 286 287 286 283 282 283 283 284 288 291 291 284 277 275 274 273 272 273 275 282 286 285 283 282 283 283 283 283 284 285
212 213 213 213 212 211 211 212 212 212 214 215 215 217 218 219 218 219 221 222 223 223 223 223 223 223 224 225 228 229 230 233 233 232 233 236 238 241 243 245 248 252 254 251 250 249 249 258 268 272 273 270 264 265 271 275 275 275 277 279 280 280 281 284 287 290 290 287 284 280 274 271 272 276 283 286 286 284 283 281 279 278 278 280 283
213 213 213 212 212 211 212 212 211 211 214 216 217 217 220 221 220 219 220 222 224 225 226 225 223 224 225 226 227 227 231 236 236 232 231 234 238 240 242 246 249 255 260 258 257 256 253 256 265 271 272 268 264 265 266 266 266 267 271 273 273 275 278 279 279 280 284 289 290 288 285 282 282 284 287 288 289 289 287 285 282 281 282 284 285
213 213 213 212 212 213 212 211 211 211 214 218 219 219 220 221 221 220 220 221 224 227 228 227 225 225 226 227 228 228 233 236 233 230 232 237 241 243 244 247 251 256 260 260 260 258 256 258 263 268 270 269 269 270 268 265 264 268 271 271 268 267 270 274 276 277 280 283 285 286 287 287 287 288 290 291 292 292 290 288 286 285 285 284 282
213 213 213 213 214 213 212 211 212 213 215 218 219 219 220 222 221 220 220 221 224 227 228 229 229 228 229 230 231 232 234 234 232 233 238 243 246 248 249 250 253 255 257 259 257 255 256 259 262 264 268 271 271 271 273 271 266 266 268 268 267 269 270 273 275 277 278 279 279 278 279 280 282 283 285 290 294 294 292 290 289 288 286 285 282
213 215 214 214 214 213 213 212 213 214 217 218 219 219 220 221 221 220 220 220 223 226 227 230 231 232 233 234 235 235 233 233 237 241 245 249 250 250 251 254 256 256 257 256 254 252 253 256 260 264 269 270 269 271 274 270 260 260 265 263 265 273 280 280 278 277 277 276 276 275 274 275 275 275 281 288 293 293 292 291 290 290 288 285 283
214 216 216 216 214 213 213 213 213 215 217 219 220 219 218 219 220 220 220 221 224 225 226 228 231 232 234 236 236 235 232 232 238 244 248 251 251 253 257 259 258 257 256 255 253 251 250 253 259 265 269 269 270 270 269 266 264 267 272 268 265 274 282 283 282 282 279 277 275 273 273 276 276 279 285 290 293 293 292 291 291 290 289 287 286
214 215 216 216 215 214 213 212 213 215 217 221 221 220 219 218 218 219 221 223 224 225 225 227 229 231 232 234 235 234 233 233 237 243 249 252 255 261 266 265 262 259 257 255 253 251 250 253 259 263 265 267 271 272 271 274 276 276 278 275 272 278 283 281 282 283 280 278 277 273 275 282 285 288 291 292 293 293 292 293 294 293 292 291 290
215 215 215 215 215 215 214 213 214 215 219 222 222 220 218 213 212 220 226 226 225 225 226 227 227 228 230 231 232 232 233 235 238 243 249 254 259 264 267 267 266 264 261 258 256 255 253 254 258 260 258 263 273 276 274 277 281 280 279 278 277 281 281 275 277 280 278 279 281 278 282 289 291 291 292 292 293 294 296 298 298 297 296 295 296
215 214 214 214 215 215 214 214 215 217 221 223 222 220 213 203 211 226 228 227 228 227 228 229 229 229 229 228 229 230 232 236 240 243 247 254 259 263 265 266 266 267 266 262 260 259 258 257 259 261 262 266 273 278 277 279 284 281 277 276 275 277 278 273 271 275 280 285 287 285 287 292 294 292 290 291 295 298 301 302 301 300 300 300 300
214 213 214 215 215 215 214 215 216 219 222 223 222 219 205 200 215 226 225 225 229 229 228 230 230 230 229 228 228 230 233 237 240 243 248 254 254 248 244 246 257 267 267 261 257 257 261 264 264 268 273 274 275 281 286 288 283 274 273 280 283 282 280 275 273 278 285 289 291 288 287 291 295 292 288 293 300 303 303 302 301 302 302 303 303
213 213 214 215 215 215 214 215 217 219 223 223 221 215 205 206 216 221 221 226 231 231 231 231 230 230 230 228 226 228 232 235 238 242 245 242 230 222 232 250 264 268 265 261 257 256 263 269 270 273 279 282 283 289 294 292 282 277 281 286 288 287 284 281 281 284 287 288 289 286 281 288 297 294 290 297 304 302 301 301 301 302 303 304 304
213 214 214 215 215 215 215 215 217 219 222 222 218 212 211 214 213 211 219 227 231 234 235 232 232 232 231 229 228 228 230 231 233 236 236 234 235 243 256 265 264 262 262 264 265 269 277 282 280 280 283 287 289 291 294 293 287 287 290 290 291 290 286 283 283 284 286 290 291 284 273 284 297 292 290 299 303 299 300 300 298 300 304 306 305
214 215 215 215 215 215 214 215 216 219 221 220 215 212 215 215 208 205 216 225 227 233 236 233 233 234 232 231 230 228 227 227 228 231 235 242 251 259 265 264 258 260 266 271 277 287 294 291 287 288 289 290 290 290 294 295 290 292 295 292 292 289 281 280 282 284 289 295 296 287 274 283 295 291 289 298 299 295 297 296 295 298 303 304 304
212 213 214 215 215 214 213 213 214 216 217 216 214 213 214 213 207 206 213 218 221 228 232 231 232 231 229 229 228 225 225 225 228 235 240 249 258 263 262 257 256 263 271 279 287 292 291 289 290 292 291 289 289 291 296 296 295 297 292 285 289 287 278 275 280 283 289 293 296 295 286 288 300 298 293 298 298 295 297 298 298 301 302 301 300
211 212 213 213 213 212 212 212 212 214 214 213 212 211 212 214 211 209 210 212 215 222 227 228 231 230 227 225 224 222 223 225 232 239 244 252 261 263 258 257 264 272 275 282 288 288 286 288 291 291 289 289 291 293 296 296 298 299 290 287 292 287 273 268 273 280 287 290 297 305 297 294 306 305 300 300 297 293 296 298 298 298 295 295 295
210 211 210 209 209 209 210 211 213 213 212 210 209 210 213 216 214 210 207 206 210 219 225 227 230 229 225 223 221 219 222 227 234 240 245 254 262 262 260 263 271 274 276 281 283 283 286 290 290 289 288 289 292 295 296 295 296 297 295 297 298 286 273 272 277 281 286 292 306 317 304 295 303 304 302 303 296 292 296 295 294 294 294 296 297
Height
842 843 843 844 844 845 845 845 845 845 845 845 845 845 845 845 845 845 844 844 844 844 844 845 845 845 845 845 846 846 846 846 846 847 847 848 848 848 849 849 850 850 850 850 849 849 850 851 852 852 852 852 853 853 854 855 856 858 858 859 860 861 861 861 862 862 863 864 864 865 866 866 867 867 868 868 869 869 869 869 869 869 870 870 870
842 842 843 843 844 844 844 845 845 845 845 845 845 845 845 845 845 844 844 844 844 844 844 844 844 844 844 844 845 845 845 846 846 846 847 847 847 848 849 849 849 849 849 849 849 849 850 851 851 851 852 852 853 854 854 855 856 857 858 859 860 860 861 861 862 862 863 863 864 865 865 866 866 867 867 868 868 868 869 869 869 869 869 869 869
842 842 842 843 843 844 844 844 844 844 844 844 844 844 844 844 844 844 844 843 843 843 843 844 843 844 843 843 844 845 845 845 846 846 846 847 847 848 848 849 849 849 848 848 848 848 849 850 850 851 852 852 853 853 854 855 856 856 857 858 859 860 860 861 861 862 862 863 864 864 865 865 866 866 867 867 868 868 868 868 868 868 868 869 869
841 841 842 843 843 843 844 844 844 844 844 844 844 844 844 844 843 843 843 843 842 842 843 843 842 843 842 842 843 844 845 845 846 846 846 846 846 847 848 848 848 848 848 848 847 847 848 849 849 850 851 852 852 853 853 854 855 856 857 857 858 859 860 860 861 861 862 862 863 863 864 864 865 865 866 867 867 867 867 867 867 867 868 868 868
840 841 841 842 842 843 843 843 843 843 843 843 843 844 843 843 843 843 842 842 842 842 842 842 842 842 842 843 843 844 844 845 845 845 845 846 846 847 847 847 848 848 848 848 847 847 848 848 849 850 851 851 852 852 853 853 854 855 856 857 857 858 859 860 860 860 861 861 862 862 863 863 864 864 865 865 866 866 866 866 867 867 867 867 867
839 840 840 841 841 842 842 842 843 843 843 843 843 843 843 843 842 842 842 842 842 842 842 841 842 842 842 843 843 843 844 844 845 845 845 846 846 846 847 847 847 848 848 848 847 847 848 848 849 849 850 851 851 852 852 852 853 854 854 855 856 857 858 859 859 859 859 860 860 861 861 862 863 863 864 864 864 865 865 865 866 866 866 866 867
838 839 840 840 841 841 841 842 842 842 842 842 842 842 842 842 842 842 842 842 843 842 842 842 842 842 842 842 842 843 843 844 844 845 846 846 846 846 846 847 847 847 848 847 847 847 848 848 849 849 849 850 851 851 851 851 852 852 853 854 855 855 856 857 857 858 858 858 859 859 860 861 861 862 862 863 863 863 864 864 865 865 865 866 866
838 839 839 840 840 841 841 841 841 841 841 842 842 842 842 842 842 842 842 842 843 842 842 842 842 842 842 842 842 842 843 843 843 844 845 846 846 846 846 847 847 848 847 847 847 847 847 848 849 849 849 850 850 850 851 851 851 851 852 852 853 854 854 855 855 856 856 857 857 858 858 859 859 860 861 862 862 862 863 863 864 864 865 865 865
837 838 838 839 839 840 840 840 840 840 841 841 841 842 842 842 842 842 842 842 842 842 842 842 842 842 842 842 842 842 842 842 843 843 845 846 846 846 846 847 847 847 847 847 847 847 847 847 848 848 848 849 850 850 850 850 850 851 851 852 852 852 853 853 854 854 855 855 856 856 857 857 858 858 859 860 860 861 861 862 863 863 864 864 864
836 837 837 838 838 839 839 839 840 840 840 840 841 841 841 842 842 842 842 842 842 842 842 841 841 841 842 842 842 842 842 843 843 843 844 845 845 846 846 846 846 847 847 847 847 847 847 847 847 848 848 849 849 850 850 850 850 851 851 851 851 852 852 852 852 853 854 854 855 855 855 856 856 857 857 858 858 859 859 860 861 862 862 862 863
835 836 836 837 837 838 838 838 839 839 840 840 840 840 840 841 841 841 841 841 841 841 841 841 841 841 841 841 841 842 842 843 843 843 844 844 845 845 846 846 846 846 847 847 847 847 847 847 847 847 848 848 849 849 850 850 850 850 850 850 851 851 851 851 852 852 852 852 853 853 854 854 855 855 855 856 856 857 857 858 859 860 860 861 861
834 835 835 835 836 837 837 838 839 839 839 839 839 839 840 840 840 841 841 841 841 841 841 841 841 841 841 841 841 841 841 842 843 843 844 844 844 845 845 846 846 847 847 847 847 847 847 847 847 847 848 848 849 849 849 849 849 849 850 850 850 851 851 851 851 851 851 851 851 852 853 853 853 853 854 854 854 855 856 856 857 857 858 858 859
833 833 834 834 835 836 836 837 838 838 838 838 839 839 839 840 840 840 840 840 840 840 840 840 840 840 841 841 841 841 841 842 842 843 844 844 844 845 845 846 846 846 847 847 847 847 847 847 847 848 848 848 848 849 849 849 849 849 849 849 850 850 850 850 850 850 850 850 851 851 851 852 852 852 852 853 853 853 854 855 855 856 856 856 857
831 832 833 833 834 835 836 836 837 837 838 838 838 838 838 839 839 839 839 840 840 840 840 839 840 840 840 841 842 841 842 842 842 843 843 844 844 845 845 845 846 846 847 847 847 848 847 847 848 848 848 848 848 848 849 849 849 849 848 849 849 849 850 849 849 849 849 849 850 850 850 851 851 851 851 851 852 852 853 853 854 854 854 855 855
830 831 832 832 833 834 835 835 836 836 837 837 838 838 838 838 838 839 839 839 839 839 839 839 839 840 840 842 843 843 843 843 842 842 843 844 844 845 845 845 846 846 847 847 848 848 848 848 848 848 848 848 848 848 849 849 849 849 849 849 849 849 849 849 849 849 849 849 849 849 849 850 850 850 850 850 850 851 851 852 852 852 853 853 853
829 829 830 831 832 833 834 834 835 835 836 836 837 837 837 837 838 838 838 838 838 838 839 839 839 839 840 843 843 844 846 845 842 842 843 844 844 845 845 845 846 846 847 847 848 848 848 848 848 848 848 848 848 849 849 849 849 849 849 849 849 849 850 849 849 849 849 849 849 849 849 849 849 849 849 849 849 850 850 850 850 851 851 852 852
827 828 829 830 831 832 833 833 834 835 835 835 836 836 836 837 837 837 837 837 837 838 838 838 838 838 839 841 843 845 846 844 843 844 844 844 845 845 845 845 846 846 847 847 848 848 848 848 848 848 848 849 849 849 849 850 850 850 849 849 850 850 850 850 849 849 849 849 848 848 848 848 848 848 848 848 848 848 849 849 849 849 849 850 850
825 827 828 829 830 831 831 832 833 834 834 835 835 835 836 836 836 836 836 837 837 837 838 838 838 838 838 838 840 842 842 842 845 846 845 845 845 845 846 846 846 846 847 847 847 848 848 848 848 848 849 849 849 849 849 850 850 850 850 850 850 850 850 850 849 849 849 849 848 848 848 848 847 847 847 847 847 847 847 847 848 848 848 848 849
824 825 826 827 829 829 830 831 832 832 833 834 834 834 835 835 835 835 836 836 836 837 837 838 838 838 838 838 838 838 839 841 843 845 847 846 845 845 846 846 846 847 847 847 847 847 848 848 848 848 849 849 849 849 849 850 850 850 850 850 850 850 850 850 850 850 849 849 849 848 848 847 847 847 846 846 846 846 846 846 846 847 847 847 847
822 823 824 826 827 828 829 830 831 831 832 832 833 833 834 834 835 835 835 836 836 836 837 837 837 838 838 838 838 838 839 840 840 842 845 847 846 846 846 846 847 847 847 847 847 847 847 848 848 848 848 849 849 849 850 850 850 850 850 850 850 850 850 850 850 849 849 849 849 848 848 847 847 846 846 846 845 845 845 845 845 845 846 846 846
821 822 823 824 825 827 828 828 829 830 831 831 832 832 833 833 834 834 835 835 835 836 836 837 837 837 838 838 839 839 839 840 840 840 841 845 847 846 845 846 847 847 847 847 847 847 847 847 847 848 848 848 849 849 849 850 850 850 850 850 850 850 850 850 850 849 849 848 848 848 848 847 847 846 846 845 845 845 844 844 844 844 844 844 844
819 820 821 823 824 825 826 827 827 828 829 830 830 831 831 832 833 833 834 834 835 836 836 837 837 837 838 838 839 839 840 840 840 840 841 843 845 845 844 845 846 846 846 847 847 847 847 847 847 847 847 848 848 848 849 849 849 849 849 849 849 849 849 849 849 849 849 848 848 847 847 847 847 846 846 845 845 844 844 844 843 843 843 843 843
817 818 820 821 822 823 824 825 826 826 827 828 829 829 830 831 832 833 833 834 834 835 836 837 837 838 838 838 838 839 839 839 839 840 841 842 843 844 844 844 845 845 845 846 846 846 847 847 847 846 847 847 847 848 848 848 848 849 848 848 849 848 848 848 848 848 848 848 847 847 847 847 846 846 846 846 845 844 844 843 843 843 842 842 842
815 816 818 819 820 821 822 823 824 824 825 826 827 828 829 830 831 832 833 833 834 835 835 836 837 837 838 838 838 838 839 839 839 839 840 841 842 843 843 844 844 844 845 845 846 846 846 846 846 846 846 846 846 847 847 847 847 848 848 847 848 847 847 847 847 847 847 847 847 846 846 846 846 846 846 845 845 844 844 843 843 842 842 841 841
812 813 815 816 818 819 820 820 821 822 823 825 826 827 828 829 830 830 831 832 833 833 834 835 836 837 837 837 838 838 839 839 839 839 840 840 841 842 843 843 843 844 844 845 845 845 845 845 845 845 845 845 845 845 846 846 846 846 847 846 847 846 846 846 846 846 846 846 846 846 845 845 845 845 845 845 845 844 844 843 842 842 841 841 840
808 809 811 814 815 816 817 818 819 820 822 823 824 825 826 827 828 829 830 831 831 832 833 834 835 836 836 837 837 838 838 838 839 839 839 839 840 840 842 842 843 843 843 844 844 844 844 844 844 844 844 844 844 844 844 845 845 845 846 846 846 845 845 845 845 845 845 845 845 845 845 845 844 844 844 844 844 843 843 842 842 841 841 840 839
805 807 809 811 812 814 816 816 817 818 820 821 822 824 825 826 827 827 828 829 830 831 832 832 834 834 835 836 837 837 838 838 838 839 839 839 839 839 840 842 843 843 843 843 842 842 843 843 843 843 843 843 843 843 843 843 844 844 844 844 844 844 844 844 844 844 844 844 844 844 844 844 843 843 843 843 842 842 842 841 841 840 840 839 838
803 805 807 808 810 812 813 814 815 817 818 819 820 822 823 824 825 826 827 828 828 829 830 831 832 833 834 835 836 836 837 837 838 838 838 839 839 839 839 840 842 844 844 843 842 841 841 841 841 842 841 842 842 841 842 842 843 843 843 843 843 843 843 843 843 843 843 842 842 842 842 842 842 842 841 841 841 841 840 840 839 839 838 838 837
801 802 804 806 807 809 810 812 813 815 816 817 818 820 822 823 823 824 825 826 827 827 828 829 830 831 832 833 834 835 836 836 837 837 838 838 838 839 839 839 840 842 844 844 842 840 840 840 840 841 841 841 841 841 841 842 842 843 842 842 842 842 842 842 841 841 841 841 840 840 840 840 840 840 840 840 839 839 839 838 838 837 837 836 836
798 800 802 803 805 807 808 810 811 812 814 815 816 818 820 822 822 823 823 824 825 826 826 827 828 830 831 831 832 833 834 835 835 836 837 837 838 838 838 838 839 840 841 842 842 839 839 839 839 840 840 840 840 840 841 841 842 842 841 841 841 840 840 840 840 839 839 839 838 838 838 838 838 838 838 838 838 837 837 836 836 835 835 834 834
795 797 799 800 802 804 806 808 809 810 811 813 815 816 818 820 820 821 822 822 823 824 825 826 827 828 829 830 831 831 832 833 834 835 835 836 837 837 838 838 838 839 839 841 841 839 837 838 838 839 839 839 840 840 840 840 840 840 840 839 839 839 839 838 838 838 837 837 837 836 836 836 836 836 836 836 836 836 835 835 834 834 833 833 832
793 794 796 798 799 801 803 805 806 808 809 811 813 814 816 817 818 819 819 820 821 821 823 824 826 827 827 828 829 829 831 831 832 833 834 835 836 836 837 837 838 839 839 840 840 838 836 837 837 838 838 839 839 839 839 838 838 838 838 837 837 837 837 836 836 836 836 836 835 835 834 834 834 834 833 834 833 833 833 833 832 832 831 831 830
789 791 793 794 796 799 800 802 803 805 807 808 810 811 813 814 815 816 817 817 818 819 820 822 823 824 825 826 827 828 829 829 830 831 832 833 834 835 836 837 837 838 839 839 839 837 836 836 837 836 837 838 837 837 837 837 836 836 836 835 835 834 834 834 834 834 834 834 834 833 833 832 832 832 831 831 831 831 831 830 830 830 829 829 828
786 788 790 791 794 796 798 799 801 802 804 805 807 808 809 810 811 812 813 814 815 816 817 819 820 822 824 825 826 827 828 828 829 830 830 831 832 833 834 835 836 837 837 838 838 838 836 835 836 836 836 836 836 835 835 835 834 834 834 833 833 832 832 832 832 832 832 832 832 832 831 831 830 830 829 829 829 829 828 828 828 828 827 826 826
783 785 786 788 790 793 795 797 798 800 802 803 804 804 805 806 807 808 810 811 812 814 815 816 818 820 822 823 824 825 827 827 828 829 830 830 831 832 832 833 834 835 836 836 836 837 836 835 835 835 835 835 835 834 834 834 833 833 832 832 832 831 830 830 829 829 829 829 830 829 829 829 828 828 827 826 826 826 826 826 825 825 825 824 824
780 782 783 785 788 790 792 793 795 797 799 799 800 801 801 802 803 804 806 808 809 811 813 815 817 818 819 820 822 824 825 826 826 827 828 829 830 830 831 832 832 833 834 835 835 835 835 834 834 834 834 834 833 834 834 833 833 833 832 831 830 830 829 829 828 827 826 826 826 826 826 826 825 825 824 824 823 823 823 823 823 823 822 822 821
777 778 781 783 785 786 788 790 793 795 795 795 796 797 798 798 800 801 803 805 808 810 811 812 814 815 817 818 820 822 823 823 824 825 827 828 828 829 829 830 831 832 832 833 833 833 833 833 832 832 832 832 832 832 832 832 832 831 831 830 829 828 827 827 826 825 825 824 823 823 823 822 822 822 821 821 821 820 820 820 820 820 820 819 819
774 775 777 779 781 783 785 788 790 791 792 792 792 794 795 796 798 799 801 804 806 808 809 810 812 813 815 816 818 820 821 821 822 824 825 826 827 828 828 828 829 830 831 831 831 832 831 831 830 830 830 830 830 830 830 830 830 829 829 828 827 827 826 825 824 823 823 822 821 821 820 820 819 819 818 818 818 817 817 817 817 817 817 816 816
771 772 774 776 778 780 783 786 787 788 788 788 789 791 792 794 796 798 800 803 805 806 808 809 811 812 813 814 816 817 818 819 821 822 824 825 826 826 827 827 828 828 828 829 829 829 829 828 828 828 827 827 827 827 827 828 827 827 826 825 824 824 824 823 822 821 821 820 819 819 818 818 817 817 816 815 815 814 814 814 814 813 813 813 812
767 769 771 773 775 778 781 783 784 785 785 785 786 788 789 792 795 797 800 802 803 805 807 809 810 811 811 812 813 814 816 817 819 820 821 823 823 824 825 826 826 826 826 826 826 827 826 826 826 825 825 824 824 824 824 825 824 824 823 823 821 820 820 820 819 818 818 817 816 816 816 815 814 814 813 812 812 811 811 811 810 810 810 809 808
764 766 768 771 773 775 778 779 781 781 781 781 781 783 786 790 793 796 799 801 802 803 805 807 808 808 809 810 811 812 813 815 817 818 819 820 821 822 822 823 823 823 823 823 824 824 824 824 823 823 823 822 821 821 821 821 821 820 820 819 818 817 817 816 815 815 815 814 813 813 813 813 812 811 810 809 809 808 808 807 807 807 806 805 804
760 763 765 768 770 772 774 775 777 777 777 776 777 780 784 789 793 797 799 799 799 801 802 803 804 805 806 807 808 810 811 812 814 815 816 818 819 819 820 820 821 821 821 821 821 821 822 821 821 821 821 819 818 818 818 817 817 817 817 816 815 814 814 813 812 812 812 811 810 810 810 810 809 808 808 807 805 805 805 804 803 803 802 801 800
757 759 762 764 766 768 770 771 772 772 771 771 773 777 783 789 796 799 798 797 797 798 799 800 801 802 803 805 806 808 809 810 812 813 814 815 816 817 817 818 819 819 819 819 819 819 819 818 817 818 817 816 815 815 815 814 814 814 814 813 812 811 811 811 810 809 809 809 808 807 807 808 807 805 805 804 803 802 801 800 799 799 798 797 797
753 755 758 760 761 763 765 767 767 767 766 767 769 775 782 790 794 793 792 794 795 796 797 798 799 799 800 802 804 806 807 809 810 811 811 812 813 814 815 816 816 817 817 817 816 816 816 815 815 814 814 813 813 813 813 812 812 812 811 811 810 810 809 809 808 807 807 807 807 805 804 805 804 803 801 801 800 799 798 797 796 796 795 794 793
749 752 753 755 757 759 760 761 762 762 762 763 767 774 780 785 785 784 787 790 791 792 794 795 796 797 799 801 802 804 806 807 807 808 809 810 811 811 813 813 813 814 814 814 813 813 813 813 812 811 811 812 811 811 811 811 810 810 809 809 808 808 807 807 806 805 805 805 804 803 801 801 801 800 798 797 797 796 795 795 793 793 791 790 789
745 747 748 750 752 753 755 756 757 758 759 760 765 772 775 776 777 782 787 788 788 789 791 792 794 796 797 799 800 802 803 804 805 807 808 808 809 810 811 810 810 811 812 812 811 811 810 810 810 809 809 810 809 809 809 809 808 808 807 806 806 805 805 804 803 803 802 802 802 801 799 798 799 797 794 794 794 793 792 792 790 790 789 787 787
740 741 743 745 746 748 750 752 754 755 755 758 764 768 769 769 772 779 784 785 786 788 788 790 792 794 795 797 798 800 801 802 803 805 805 807 807 808 808 808 808 808 808 809 809 809 808 807 807 807 807 808 807 807 807 807 806 805 805 804 804 803 802 802 801 800 799 799 800 799 796 795 796 794 791 791 791 790 789 789 787 787 786 785 784
735 737 739 740 742 744 746 748 750 751 753 757 761 763 765 767 771 775 778 781 783 785 786 788 790 791 793 795 796 798 799 800 802 802 803 805 805 805 805 805 805 805 806 807 807 806 805 805 805 805 805 805 805 805 805 804 804 803 803 802 802 801 800 800 799 798 797 797 797 796 794 792 793 791 789 788 788 787 786 785 784 784 784 782 782
730 731 733 735 737 740 743 745 747 749 751 754 758 760 762 766 769 772 774 776 779 782 783 785 787 788 791 793 794 796 797 798 800 800 802 803 803 803 803 803 803 803 803 804 804 804 804 804 803 804 803 803 803 802 802 802 802 802 801 800 799 799 799 798 797 796 795 794 794 794 792 790 789 788 786 786 785 784 783 782 781 781 780 779 779
724 726 729 732 735 737 739 742 744 746 748 750 753 756 759 762 765 767 770 773 776 779 781 783 785 787 789 790 792 793 794 796 798 799 801 802 802 801 802 802 802 802 801 802 803 803 802 802 802 802 801 801 801 800 801 800 800 800 799 797 797 797 797 796 795 794 793 792 791 791 790 788 787 786 784 782 781 780 779 779 778 778 777 776 775
720 723 726 729 731 733 736 739 740 742 743 746 750 753 756 759 761 764 767 771 774 777 778 780 783 785 787 788 789 791 792 794 796 797 799 799 799 799 800 800 801 800 800 802 802 801 800 800 800 800 799 799 799 799 799 799 798 798 796 796 796 796 795 794 794 793 792 790 790 790 788 786 785 784 783 780 778 776 776 776 775 774 774 772 770